TimeAKST,TemperatureF,Dew PointF,Humidity,Sea Level PressureIn,VisibilityMPH,Wind Direction,Wind SpeedMPH,Gust SpeedMPH,PrecipitationIn,Events,Conditions,WindDirDegrees,DateUTC
12:53 AM,26.1,24.1,92,30.08,10.0,Calm,Calm,-,N/A,,Overcast,0,2012-11-10 09:53:00
1:53 AM,26.1,23.0,88,30.07,10.0,Calm,Calm,-,N/A,,Overcast,0,2012-11-10 10:53:00
3:53 AM,27.0,24.1,89,30.04,10.0,East,4.6,-,N/A,,Overcast,100,2012-11-10 12:53:00
4:53 AM,27.0,24.1,89,30.01,10.0,Calm,Calm,-,N/A,,Overcast,0,2012-11-10 13:53:00
5:53 AM,27.0,24.1,89,29.99,10.0,Calm,Calm,-,N/A,,Overcast,0,2012-11-10 14:53:00
6:53 AM,27.0,24.1,89,29.99,10.0,Calm,Calm,-,N/A,,Overcast,0,2012-11-10 15:53:00
7:53 AM,28.0,24.1,85,29.97,10.0,Calm,Calm,-,N/A,,Overcast,0,2012-11-10 16:53:00
8:53 AM,28.0,24.1,85,29.97,10.0,Calm,Calm,-,N/A,,Overcast,0,2012-11-10 17:53:00
9:53 AM,30.0,24.1,79,29.95,10.0,Calm,Calm,-,N/A,,Overcast,0,2012-11-10 18:53:00
10:53 AM,30.0,23.0,75,29.95,10.0,West,3.5,-,N/A,,Overcast,280,2012-11-10 19:53:00
11:53 AM,30.0,25.0,82,29.94,10.0,Calm,Calm,-,N/A,,Overcast,0,2012-11-10 20:53:00
12:53 PM,30.9,24.1,76,29.93,10.0,Calm,Calm,-,N/A,,Overcast,0,2012-11-10 21:53:00
1:53 PM,32.0,24.1,73,29.90,10.0,East,10.4,-,N/A,,Overcast,100,2012-11-10 22:53:00
2:53 PM,32.0,25.0,75,29.89,10.0,Calm,Calm,-,N/A,,Overcast,0,2012-11-10 23:53:00
3:53 PM,32.0,26.1,79,29.88,4.0,ESE,10.4,-,0.00,Snow,Light Snow,120,2012-11-11 00:53:00
4:53 PM,30.9,28.9,92,29.86,3.0,East,12.7,-,0.01,Snow,Light Snow,100,2012-11-11 01:53:00
5:53 PM,32.0,28.9,88,29.85,3.0,East,13.8,-,0.00,Snow,Light Snow,100,2012-11-11 02:53:00
6:53 PM,32.0,28.9,88,29.83,6.0,ESE,13.8,-,0.00,Snow,Light Snow,110,2012-11-11 03:53:00
7:42 PM,33.8,28.4,81,29.82,9.0,ESE,9.2,-,0.00,,Overcast,120,2012-11-11 04:42:00
7:53 PM,33.1,28.9,85,29.82,10.0,East,9.2,-,0.00,Snow,Light Snow,100,2012-11-11 04:53:00
8:24 PM,33.8,28.4,81,29.82,3.0,ESE,13.8,-,0.00,Snow,Light Snow,120,2012-11-11 05:24:00
8:53 PM,33.1,30.0,89,29.83,2.0,SE,13.8,-,0.00,Snow,Light Snow,130,2012-11-11 05:53:00
9:53 PM,32.0,30.0,92,29.82,2.0,ESE,16.1,-,0.01,Snow,Light Snow,120,2012-11-11 06:53:00
10:53 PM,32.0,30.0,92,29.81,3.0,East,10.4,-,0.00,Snow,Light Snow,100,2012-11-11 07:53:00
11:24 PM,32.0,30.2,93,29.80,2.0,East,10.4,-,0.01,Snow,Light Snow,90,2012-11-11 08:24:00
11:53 PM,32.0,30.9,96,29.80,2.0,East,9.2,-,0.01,Snow,Light Snow,80,2012-11-11 08:53:00